Regional Weather Roundup
Issued by NWS Charleston, WV

Home | Current Version | Previous Version | Graphics & Text | Print | Product List | Glossary On
Versions: 1 2 3 4 5 6 7 8 9 10 11 12 13 14 15 16 17 18 19 20 21 22 23 24 25 26 27 28 29 30 31 32 33 34 35 36 37 38 39 40 41 42 43 44 45 46 47 48 49 50
000
ASUS41 KRLX 290110
RWRRLX
West Virginia Regional Weather Roundup
National Weather Service Charleston WV
900 PM EDT WED SEP 28 2016

Note: "fair" indicates few or no clouds below 12,000 feet with no
significant weather and/or obstructions to visibility.

WVZ003-290200-
Northern Panhandle of West Virginia

CITY           SKY/WX    TMP DP  RH WIND       PRES   REMARKS
WHEELING       CLOUDY    65  55  70 E10       29.94R
$$

WVZ009-290200-
Northwest West Virginia

CITY           SKY/WX    TMP DP  RH WIND       PRES   REMARKS
PARKERSBURG    CLOUDY    60  52  74 NW9       30.00R
$$

WVZ006-290200-
Western West Virginia

CITY           SKY/WX    TMP DP  RH WIND       PRES   REMARKS
HUNTINGTON     LGT RAIN  60  55  83 NW5       29.96R
$$

WVZ015-290200-
West Central West Virginia

CITY           SKY/WX    TMP DP  RH WIND       PRES   REMARKS
CHARLESTON     PTCLDY    61  52  72 NW15G22   29.97R
$$

WVZ022-031-290200-
North Central West Virginia

CITY           SKY/WX    TMP DP  RH WIND       PRES   REMARKS
CLARKSBURG     CLEAR     66  59  78 E13G25    29.91R
MORGANTOWN     PTCLDY    66  58  75 SE15G24   29.95R
$$

WVZ025-035-042-045-290200-
Southern West Virginia

CITY           SKY/WX    TMP DP  RH WIND       PRES   REMARKS
BECKLEY        CLEAR     61  42  49 SE6       29.97R
LOGAN            N/A     61  52  72 N9G18     29.97R
BLUEFIELD      CLEAR     65  47  52 NW6       29.99R
LEWISBURG      CLEAR     66  60  81 CALM      29.97S
$$

WVZ047-290200-
Northern Mountains of West Virginia

CITY           SKY/WX    TMP DP  RH WIND       PRES   REMARKS
ELKINS         CLEAR     66  55  67 SE6G17    29.98R
$$

WVZ052-290200-
Eastern Panhandle of West Virginia

CITY           SKY/WX    TMP DP  RH WIND       PRES   REMARKS
MARTINSBURG    CLOUDY    64  61  90 N5        30.04R
PETERSBURG     CLOUDY    66  61  82 W3        30.02R
$$




USA.gov is the U.S. government's official web portal to all federal, state and local government web resources and services.